Lake Pleasant Weather Center

Moon Phase Calendar



Lake Pleasant Water Level
Online Cameras

 


      

Current Conditions in Anthem
7/23/2024 4:50:41 AM

91°F
Feels Like 90
Clouds
Humidity
31%
Pressure
29.83"
Wind
8.4 mph (NE)
Dew Point
56°F
UV Index
0/10 (Low)
Visibility
6 mi

Hourly Forecast

Date & Time Tue, Jul 23
4:00 AM
Tue, Jul 23
5:00 AM
Tue, Jul 23
6:00 AM
Tue, Jul 23
7:00 AM
Tue, Jul 23
8:00 AM
Tue, Jul 23
9:00 AM
Tue, Jul 23
10:00 AM
Tue, Jul 23
11:00 AM
Tue, Jul 23
12:00 PM
Tue, Jul 23
1:00 PM
Tue, Jul 23
2:00 PM
Tue, Jul 23
3:00 PM
Tue, Jul 23
4:00 PM
Tue, Jul 23
5:00 PM
Tue, Jul 23
6:00 PM
Tue, Jul 23
7:00 PM
Tue, Jul 23
8:00 PM
Tue, Jul 23
9:00 PM
Tue, Jul 23
10:00 PM
Tue, Jul 23
11:00 PM
Wed, Jul 24
12:00 AM
Wed, Jul 24
1:00 AM
Wed, Jul 24
2:00 AM
Wed, Jul 24
3:00 AM
Wed, Jul 24
4:00 AM
Wed, Jul 24
5:00 AM
Wed, Jul 24
6:00 AM
Wed, Jul 24
7:00 AM
Wed, Jul 24
8:00 AM
Wed, Jul 24
9:00 AM
Wed, Jul 24
10:00 AM
Wed, Jul 24
11:00 AM
Wed, Jul 24
12:00 PM
Wed, Jul 24
1:00 PM
Wed, Jul 24
2:00 PM
Wed, Jul 24
3:00 PM
Wed, Jul 24
4:00 PM
Wed, Jul 24
5:00 PM
Wed, Jul 24
6:00 PM
Wed, Jul 24
7:00 PM
Wed, Jul 24
8:00 PM
Wed, Jul 24
9:00 PM
Wed, Jul 24
10:00 PM
Wed, Jul 24
11:00 PM
Thu, Jul 25
12:00 AM
Thu, Jul 25
1:00 AM
Thu, Jul 25
2:00 AM
Thu, Jul 25
3:00 AM
Condition
Clouds

Clouds

Clouds

Clouds

Clouds

Clouds

Clear

Clear

Clear

Clear

Clear

Clear

Clear

Clear

Clear

Clouds

Clouds

Clouds

Clouds

Clouds

Clouds

Clouds

Clouds

Clouds

Clouds

Clouds

Clouds

Clouds

Clouds

Clouds

Clouds

Clouds

Clouds

Clouds

Clouds

Clear

Clear

Clear

Rain

Rain

Clouds

Clouds

Clouds

Clouds

Clouds

Clouds

Clouds

Clouds
Temperature 91°F91°F91°F91°F93°F95°F98°F100°F101°F103°F103°F105°F105°F107°F103°F90°F95°F96°F93°F92°F92°F91°F90°F89°F89°F89°F89°F90°F92°F94°F97°F99°F102°F104°F107°F108°F110°F102°F87°F88°F91°F91°F91°F90°F90°F89°F89°F89°F
Feels Like 89°F90°F89°F90°F92°F94°F98°F100°F101°F102°F103°F104°F104°F105°F101°F89°F93°F94°F92°F91°F91°F91°F90°F89°F89°F88°F89°F90°F92°F94°F96°F99°F102°F105°F108°F109°F109°F103°F89°F89°F91°F92°F91°F91°F90°F90°F90°F90°F
Cloudiness 50%51%41%32%22%14%7%6%0%0%0%0%1%1%0%38%58%70%76%77%63%47%52%44%41%47%35%19%16%15%14%16%11%12%12%10%7%4%88%94%96%97%98%98%97%99%97%97%
Visibility 6 mi6 mi6 mi6 mi6 mi6 mi6 mi6 mi6 mi6 mi6 mi6 mi6 mi6 mi6 mi6 mi6 mi6 mi6 mi6 mi6 mi6 mi6 mi6 mi6 mi6 mi6 mi6 mi6 mi6 mi6 mi6 mi6 mi6 mi6 mi6 mi6 mi6 mi6 mi6 mi6 mi6 mi6 mi6 mi6 mi6 mi6 mi6 mi
Precipitation 0%0%0%0%0%0%0%0%0%0%0%0%0%0%19%20%19%10%10%10%0%0%0%0%0%0%0%0%0%0%0%0%0%0%0%0%0%9%100%100%80%80%80%80%0%0%0%0%
Humidity 33%31%32%32%30%28%27%26%24%23%22%20%20%17%20%32%25%25%31%31%32%36%37%39%38%39%39%36%34%31%28%26%25%23%21%19%16%27%46%45%36%37%38%39%39%40%41%42%
Dew Point 58°F56°F57°F57°F57°F57°F58°F58°F58°F58°F57°F56°F55°F53°F56°F57°F54°F55°F57°F57°F58°F60°F60°F61°F60°F60°F60°F59°F59°F59°F58°F59°F59°F59°F59°F57°F56°F59°F64°F64°F60°F61°F62°F62°F61°F61°F62°F63°F
Pressure 29.83"29.83"29.83"29.83"29.85"29.88"29.88"29.85"29.85"29.83"29.8"29.77"29.77"29.74"29.77"29.83"29.8"29.83"29.88"29.88"29.91"29.91"29.91"29.91"29.91"29.91"29.94"29.97"29.97"29.97"29.94"29.94"29.91"29.91"29.88"29.83"29.83"29.85"29.94"29.88"29.88"29.91"29.94"29.94"29.97"29.97"29.94"29.94"
Wind Speed 7.1 mph8.4 mph8.3 mph6.9 mph6.4 mph9.1 mph10.4 mph10.2 mph9.4 mph8 mph5.8 mph6.2 mph5.8 mph12 mph15.8 mph31.5 mph16.6 mph12.9 mph10.8 mph1.3 mph1.4 mph4 mph4.8 mph4 mph5.7 mph4.1 mph3.2 mph2 mph1.1 mph1.2 mph3.1 mph5.7 mph7.3 mph9 mph12.1 mph13.2 mph10.7 mph15.9 mph28.2 mph20.5 mph17.8 mph12.5 mph8.5 mph6.4 mph5.9 mph6.3 mph6.8 mph4.2 mph
Wind
Direction
35°
NE
36°
NE
37°
NE
60°
ENE
110°
ESE
135°
SE
145°
SE
147°
SSE
145°
SE
139°
SE
156°
SSE
189°
S
147°
SSE
155°
SSE
22°
NNE

N

N
51°
NE
37°
NE
31°
NNE
276°
W
32°
NNE
35°
NE

N
19°
NNE
27°
NNE
356°
N

N
17°
NNE
124°
SE
184°
S
208°
SSW
219°
SW
228°
SW
236°
SW
240°
WSW
241°
WSW
342°
NNW
16°
NNE
19°
NNE
24°
NNE
19°
NNE
35°
NE
64°
ENE
70°
ENE
45°
NE
22°
NNE
23°
NNE

Daily Forecast

Date High Low Precip. Humidity
Today
Jul 23

Clear
107 °F
89 °F
20%
24%
Wednesday
Jul 24

Rain
110 °F
87 °F
100%
25%
Thursday
Jul 25

Rain
111 °F
83 °F
100%
25%
Friday
Jul 26

Rain
106 °F
84 °F
96%
34%
Saturday
Jul 27

Clear
103 °F
89 °F
0%
36%
Sunday
Jul 28

Clear
103 °F
87 °F
0%
30%
Monday
Jul 29

Clouds
104 °F
88 °F
0%
21%
Tuesday
Jul 30

Rain
104 °F
79 °F
100%
38%
Wednesday
Jul 31

Rain
100 °F
84 °F
100%
38%
Thursday
Aug 1

Clear
103 °F
87 °F
0%
29%
Friday
Aug 2

Rain
108 °F
91 °F
20%
26%
Saturday
Aug 3

Clear
112 °F
90 °F
9%
17%
Sunday
Aug 4

Clear
107 °F
88 °F
0%
24%
Monday
Aug 5

Clouds
109 °F
95 °F
0%
18%
Tuesday
Aug 6

Rain
103 °F
87 °F
100%
36%
Wednesday
Aug 7

Clouds
107 °F
87 °F
0%
37%

Temperature 8-14 Day Outlook



Precipitation 8-14 Day Outlook






About Us
Contact Us
Site Map
Search Site
Advertise With Us
   
Pleasant.LakesOnline.com
THE LAKE PLEASANT WEBSITE

Copyright 2024, Lakes Online
Privacy    |    Legal